SCP
1 2 2 2 2 2 1 1 1 0 0 0 0 0 0 0 0 0 0 0 0 0 0 0 0 0 1 1 1 1 1 1 0 0 0 0 0 0 0 0 0 0 0
2 2 2 2 2 2 1 1 1 1 0 0 0 0 0 0 0 0 0 0 0 0 0 0 0 0 1 1 1 1 1 1 1 0 0 0 0 0 0 1 1 0 0
2 2 2 2 2 2 2 1 1 1 0 0 0 0 0 0 0 0 0 0 0 0 0 0 0 0 1 1 1 1 1 1 1 1 0 0 0 0 1 1 1 1 1
2 2 2 2 2 2 1 1 1 1 0 0 0 0 0 0 0 0 0 0 0 0 0 0 0 0 1 1 1 1 1 1 1 1 1 1 1 1 1 1 1 1 1
2 2 2 2 2 2 1 1 1 1 0 0 0 0 0 0 0 0 0 0 0 0 0 0 0 0 0 1 1 1 1 1 1 1 1 1 1 1 1 1 1 1 1
2 2 2 2 2 2 1 1 1 1 1 0 0 0 0 0 0 0 0 0 0 0 0 0 0 0 0 0 0 1 1 1 1 1 1 1 1 1 1 1 1 1 1
1 2 2 2 2 2 1 1 1 1 1 1 0 0 0 0 0 0 0 0 0 0 0 0 0 0 0 0 0 0 0 1 1 1 1 1 1 1 1 1 1 1 1
1 2 2 2 2 2 2 1 1 1 1 1 1 0 0 0 0 0 0 0 0 0 0 0 0 0 0 0 0 0 0 1 1 1 1 1 1 1 1 1 1 1 1
2 2 2 2 2 2 2 2 1 1 1 1 1 1 0 0 0 0 0 0 0 0 0 0 0 0 0 0 0 0 0 0 0 1 1 1 1 1 1 1 1 1 1
2 2 2 2 1 2 2 2 1 1 1 1 1 1 0 0 0 0 0 0 0 0 0 0 0 0 0 0 0 0 0 0 0 0 1 1 1 1 1 1 1 1 1
2 2 2 2 1 1 2 2 1 1 1 1 1 1 1 0 0 0 0 0 0 0 0 0 0 0 0 0 0 0 0 0 0 1 1 1 1 1 1 1 1 1 1
2 2 2 2 1 1 1 1 1 1 1 1 1 1 1 0 0 0 0 0 0 0 0 0 0 0 0 0 0 0 0 0 0 1 1 1 1 1 1 1 1 1 1
2 2 2 2 2 1 1 1 1 1 1 1 1 1 1 1 0 0 0 0 0 0 0 0 0 0 0 0 0 0 0 0 0 0 1 1 1 1 1 1 1 1 1
2 2 2 2 2 2 1 1 1 1 1 1 1 1 1 1 0 0 0 0 0 0 0 0 0 0 0 0 0 0 0 0 0 0 0 1 1 1 1 1 1 1 1
1 1 2 2 2 2 2 1 1 1 1 1 0 1 1 1 1 0 0 0 0 0 0 0 0 0 0 0 0 0 0 0 0 0 0 0 0 0 0 1 1 1 1
1 1 1 1 2 2 2 1 1 1 1 1 0 0 1 1 1 1 1 1 0 0 0 0 0 0 0 0 0 0 0 0 0 0 0 0 0 0 0 0 0 0 0
0 0 1 1 1 1 1 1 1 1 1 1 0 0 0 0 1 1 1 1 1 0 0 0 0 0 0 0 0 0 0 0 0 0 0 0 0 0 0 0 0 0 0
0 0 0 0 1 1 1 1 1 1 1 1 1 0 0 0 0 1 1 1 1 1 0 0 0 0 0 0 0 0 0 0 0 0 0 0 0 0 0 0 0 0 0
0 0 0 0 0 1 1 1 1 1 1 1 1 0 0 0 0 0 1 1 1 1 0 0 0 0 0 0 0 0 0 0 0 0 0 0 0 0 0 0 0 0 0
0 0 0 0 0 0 1 1 1 1 1 1 1 1 0 0 0 0 0 0 1 1 0 0 0 0 0 0 0 0 0 0 0 0 0 0 0 0 0 0 0 0 0
0 0 0 0 0 0 1 1 1 0 0 1 1 1 0 0 0 0 0 0 0 0 0 0 0 0 0 0 0 0 0 0 0 0 0 0 0 0 0 0 0 0 0
0 0 0 0 0 0 0 0 0 0 0 0 1 1 0 0 0 0 0 0 0 0 0 0 0 0 0 0 0 0 0 0 0 0 0 0 0 0 0 0 0 0 0
0 0 0 0 0 0 0 0 0 0 0 0 1 1 1 0 0 0 0 0 0 0 0 0 0 0 0 0 0 0 0 0 0 0 0 0 0 0 0 0 0 0 0
0 0 0 0 0 0 0 0 0 0 0 0 0 1 1 0 0 0 0 0 0 0 0 0 0 0 0 0 0 0 0 0 0 0 0 0 0 0 0 0 0 0 0
0 0 0 0 0 0 0 0 0 0 0 0 0 0 1 0 0 0 0 0 0 0 0 0 0 0 0 0 0 0 0 0 0 0 0 0 0 0 0 0 0 0 0
0 0 0 0 0 0 0 0 0 0 0 0 0 0 0 0 0 0 0 0 0 0 0 0 0 0 0 0 0 0 0 0 0 0 0 0 0 0 0 0 0 0 0
Wind_Speed
4 5 5 5 5 5 5 5 5 6 6 5 5 5 5 4 3 3 4 8 7 6 6 6 7 7 6 6 6 5 5 5 4 4 4 4 4 4 4 4 3 3 4
4 5 5 5 5 5 5 5 6 5 4 3 3 3 4 4 3 3 4 5 8 7 7 7 7 7 7 7 6 6 5 5 5 5 5 4 4 4 5 5 4 4 4
5 5 5 5 5 5 5 4 5 4 3 3 3 3 3 3 3 3 4 4 5 7 8 8 8 8 7 8 8 7 7 6 6 6 5 5 5 5 5 5 5 5 4
6 5 4 5 5 5 5 4 3 3 3 3 3 2 2 2 3 3 3 3 4 4 6 8 8 8 8 9 9 9 8 7 7 7 7 7 6 6 6 6 5 5 6
5 4 4 4 5 4 4 4 3 3 3 3 3 2 2 3 3 3 3 3 3 4 4 6 8 8 8 9 10 10 10 9 8 8 8 8 8 8 7 7 6 6 7
5 4 4 4 5 4 4 4 4 3 3 3 3 3 3 3 3 3 4 3 3 4 4 4 4 6 9 10 11 11 11 10 9 9 10 10 9 9 9 8 8 7 7
4 4 4 4 4 5 5 5 4 4 3 2 2 1 2 4 4 4 3 3 4 4 4 4 4 3 4 10 11 11 11 11 11 11 11 11 10 10 10 10 9 8 8
4 4 4 4 4 4 5 5 4 3 3 3 3 2 2 3 4 4 3 3 4 3 4 4 4 4 4 4 6 10 11 12 12 12 12 11 11 11 11 10 10 10 9
3 3 4 4 3 4 4 5 5 5 4 3 3 3 3 4 2 3 4 4 3 3 3 3 5 5 4 4 4 7 8 10 12 13 13 12 12 13 12 11 11 11 11
1 1 2 3 3 3 3 4 4 4 4 4 2 2 2 2 2 2 2 3 4 4 4 4 4 5 5 4 5 7 8 9 12 14 15 14 14 14 13 12 12 12 11
1 1 1 2 2 3 3 3 4 4 4 4 3 2 2 2 2 2 3 3 3 4 4 5 4 4 5 5 4 6 8 10 13 14 15 15 15 15 14 14 13 13 12
1 1 2 1 1 1 2 2 3 3 3 3 3 3 3 2 2 3 3 3 4 4 4 4 4 4 4 5 6 7 8 10 13 14 16 16 15 15 14 14 14 14 12
1 1 1 1 1 1 2 2 2 3 3 4 4 3 3 3 2 2 3 4 4 3 3 4 4 4 3 3 4 7 9 10 12 14 16 17 15 14 14 15 15 14 12
1 1 1 1 0 1 1 1 1 1 2 3 3 3 2 3 2 3 3 3 4 4 3 4 3 3 3 3 5 7 6 11 12 14 16 16 15 13 13 14 15 14 12
1 1 1 1 1 1 1 1 1 1 2 2 2 3 3 2 2 2 2 3 4 6 6 4 2 2 3 3 5 5 6 10 12 13 14 14 13 13 12 12 12 11 11
1 1 1 1 0 0 1 1 1 1 1 1 1 2 2 2 2 2 2 2 3 5 7 3 3 3 3 4 7 6 7 11 12 13 14 13 13 13 13 12 12 11 11
1 1 1 1 1 1 0 0 0 0 1 1 1 1 2 2 2 2 2 2 3 4 7 6 3 3 4 6 6 5 6 6 7 13 14 14 14 13 13 13 12 12 11
2 2 1 1 1 1 0 0 1 1 1 1 2 2 2 2 2 2 2 3 4 4 5 8 5 4 5 6 6 6 6 6 6 10 14 14 14 14 13 13 12 12 12
2 2 2 2 1 1 0 0 1 1 2 2 2 3 3 3 3 3 3 3 3 4 4 6 6 4 4 4 5 5 5 5 5 7 11 13 14 14 13 12 11 11 12
2 2 2 2 1 1 1 1 1 1 2 2 2 3 3 3 4 4 4 4 4 5 5 5 6 5 4 4 4 4 5 4 5 5 8 9 11 12 13 12 11 10 10
2 2 2 1 2 1 2 2 1 2 2 3 3 3 3 4 5 5 4 4 4 4 5 5 6 5 5 4 4 4 6 5 6 4 4 5 5 5 7 9 9 10 10
2 3 3 3 3 2 4 5 3 1 2 3 3 3 3 3 4 6 8 7 6 6 6 6 6 6 7 6 5 5 5 5 6 3 3 5 3 5 5 5 8 10 10
3 3 3 3 3 3 5 5 6 3 3 3 3 3 3 3 4 3 5 7 7 8 8 6 7 7 7 6 6 6 6 7 7 4 3 5 4 5 4 5 10 10 10
3 3 3 3 3 4 7 7 8 4 3 3 3 3 3 4 4 6 5 4 5 5 6 5 5 6 6 6 6 7 7 7 6 4 3 5 3 4 3 3 9 10 9
3 3 3 3 3 5 8 9 8 3 3 4 4 4 4 4 8 9 6 5 6 5 7 9 10 9 10 10 8 5 5 5 6 4 3 3 2 2 2 3 5 8 8
3 3 4 4 4 4 8 10 9 3 3 4 4 4 6 7 9 10 6 5 6 6 6 7 7 7 7 7 8 5 4 5 5 4 3 2 2 1 2 1 2 2 4
Wind_Direction
183 175 173 176 180 179 181 186 192 194 203 206 201 202 202 206 204 176 158 177 181 200 219 232 237 238 240 244 250 255 261 263 263 262 267 276 287 295 296 297 304 313 323
185 179 176 178 185 181 180 188 192 190 200 198 209 209 208 207 205 180 162 183 191 200 217 230 238 243 247 249 252 257 264 263 261 261 258 269 277 284 287 287 288 290 301
187 186 182 181 184 181 181 186 193 185 188 192 212 225 218 215 210 192 174 175 189 206 213 226 235 240 247 253 256 260 263 262 258 255 256 261 266 270 275 279 279 277 284
195 188 188 187 183 177 178 179 183 179 189 191 199 222 225 217 222 211 194 183 180 188 210 221 230 238 243 253 258 258 258 257 250 248 252 256 255 258 264 266 268 273 275
203 189 188 193 182 175 175 179 180 178 187 192 197 212 226 219 219 219 211 200 191 181 186 209 218 228 237 249 257 259 261 258 252 250 251 252 252 255 260 262 265 271 274
205 195 187 195 180 174 175 177 183 182 182 185 202 213 228 231 217 215 213 205 198 195 193 198 204 225 232 241 249 254 259 260 256 256 255 253 251 254 255 259 261 264 269
208 196 193 189 179 181 181 181 177 182 188 167 156 222 254 242 231 222 211 206 207 207 204 206 205 210 222 231 237 245 252 257 258 258 258 256 255 256 259 260 258 260 265
208 204 194 189 181 182 182 184 169 175 187 174 158 157 231 255 246 228 214 211 211 205 214 219 217 217 216 214 228 234 241 251 258 258 259 258 257 259 260 260 259 260 262
203 200 191 183 179 179 184 186 178 176 184 193 181 172 184 215 238 241 225 215 215 218 226 228 227 227 226 222 224 230 236 248 258 261 261 259 259 260 260 261 260 259 259
173 170 164 168 176 175 183 188 178 174 177 193 209 215 209 180 187 241 251 229 225 229 229 231 231 232 227 224 226 231 234 245 258 261 262 262 261 261 262 263 263 261 260
119 119 119 146 170 179 187 186 178 176 185 196 195 197 223 251 226 213 243 242 246 238 234 236 233 233 231 227 226 228 231 245 258 262 263 263 263 263 264 265 263 261 260
96 104 117 123 145 166 189 191 186 187 195 202 207 201 195 199 213 222 240 243 246 245 241 236 233 236 236 231 234 233 236 248 257 264 267 266 264 264 266 266 265 262 258
104 110 111 141 172 184 187 184 192 198 205 205 213 220 222 222 213 224 243 258 262 260 240 236 232 235 242 237 240 238 241 248 255 261 267 267 266 265 266 265 266 262 258
105 105 108 115 155 179 189 178 185 209 217 216 219 223 231 231 224 223 230 252 273 263 243 246 242 231 245 249 256 246 249 250 254 258 264 268 268 265 264 261 264 257 255
90 102 121 139 184 200 191 170 186 208 218 222 220 224 234 241 235 233 229 222 242 267 265 243 241 246 254 257 260 250 252 254 255 259 263 266 266 262 260 257 256 249 248
74 75 74 116 156 192 200 194 192 210 216 232 229 227 238 246 245 245 244 244 243 257 269 258 256 268 266 271 269 257 254 263 258 259 260 261 261 258 255 251 244 237 238
43 57 42 58 57 33 355 180 236 193 222 257 264 251 255 262 257 256 258 259 253 253 271 281 272 269 261 261 268 260 260 254 255 257 259 260 259 256 253 247 237 233 234
33 26 25 42 27 18 345 212 254 252 246 255 257 251 252 258 255 260 257 261 262 263 271 281 284 274 262 256 256 260 266 262 256 260 259 261 260 258 252 245 236 229 230
25 21 34 34 17 4 0 302 275 268 253 247 244 242 246 247 252 258 261 260 265 274 270 277 284 284 279 276 274 271 272 265 263 263 262 260 258 254 246 240 238 229 226
26 19 22 17 5 8 18 358 335 303 281 272 266 258 254 244 248 253 257 259 267 268 272 275 279 285 284 281 274 278 282 266 268 266 262 264 262 254 243 239 237 229 225
18 8 11 358 359 12 15 355 317 308 283 277 274 269 263 261 266 271 274 265 264 266 272 275 281 288 288 288 277 273 275 280 270 251 256 254 251 248 238 236 228 223 223
21 28 30 28 26 19 9 8 357 330 313 303 299 298 290 275 286 295 291 286 279 270 267 267 274 281 286 288 285 281 280 281 278 243 247 262 244 248 241 225 227 227 224
33 37 33 30 28 16 10 10 9 4 347 328 322 318 315 319 321 298 299 303 295 292 282 270 274 278 284 283 283 279 273 271 268 265 251 261 245 247 245 237 230 230 227
32 31 29 26 25 18 17 17 12 9 353 345 333 322 330 332 328 323 314 305 294 293 292 282 272 276 279 281 273 271 273 275 276 261 226 250 248 250 252 240 233 229 222
30 27 32 33 33 21 19 15 9 2 359 345 341 349 343 331 330 332 323 311 307 302 304 300 296 294 294 295 295 288 279 274 278 269 234 236 249 267 257 244 235 223 214
30 28 34 34 37 32 20 16 10 2 353 344 341 340 339 336 334 333 322 309 301 300 304 302 301 301 295 290 293 276 266 267 275 271 227 219 242 237 262 259 238 217 213